Weather reports worldwide

Advertisment
Santander/Parayas, Spain (8021): temperature & dewpoint: 10.12.2019 13:00:00 - 16.12.2019 13:00:00 (CET)Santander/Parayas, Spain (8021): wind speed & gusts: 10.12.2019 13:00:00 - 16.12.2019 13:00:00 (CET)Santander/Parayas, Spain (8021): wind direction: 10.12.2019 13:00:00 - 16.12.2019 13:00:00 (CET)Santander/Parayas, Spain (8021): reduced air pressure: 10.12.2019 13:00:00 - 16.12.2019 13:00:00 (CET)Santander/Parayas, Spain (8021): visibility: 10.12.2019 13:00:00 - 16.12.2019 13:00:00 (CET)
Date & Time tt [°C] td [°C] ff [km/h] ff [kn] fx [km/h] fx [kn] dd ppp [hPa] vv [km]
16.12.2019 13:00:00 17,9 10,0 11 6 - - WSW 996,8 20
16.12.2019 12:00:00 15,0 11,8 11 6 - - ENE 998,1 -
16.12.2019 11:00:00 13,3 11,9 8 4 - - SE 999,1 -
16.12.2019 10:00:00 12,0 11,2 9 5 - - WSW 999,6 20
16.12.2019 09:00:00 12,1 11,5 13 7 - - WSW 999,8 -
16.12.2019 08:00:00 12,0 11,4 11 6 - - WSW 1000,2 -
16.12.2019 07:00:00 11,3 10,2 15 8 - - WNW 999,8 10
16.12.2019 06:00:00 12,5 9,0 9 5 - - SSW 999,7 -
16.12.2019 05:00:00 11,2 9,6 4 2 - - W 1000,7 -
16.12.2019 04:00:00 10,6 9,8 2 1 - - SW 1001,8 -
16.12.2019 03:00:00 11,4 9,6 9 5 - - WNW 1002,4 -
16.12.2019 02:00:00 11,9 10,5 5 3 - - W 1002,8 -
16.12.2019 01:00:00 12,0 11,4 9 5 - - ESE 1004,1 -
16.12.2019 00:00:00 12,7 12,1 13 7 - - NE 1005,2 -
15.12.2019 23:00:00 12,6 12,0 13 7 - - NE 1005,7 -
15.12.2019 22:00:00 12,4 11,6 9 5 - - ENE 1006,4 15
15.12.2019 21:00:00 12,7 11,8 11 6 - - NE 1006,5 -
15.12.2019 20:00:00 12,7 11,8 16 9 - - NE 1006,9 -
15.12.2019 19:00:00 12,6 11,3 15 8 - - NE 1007,2 20
15.12.2019 18:00:00 12,3 10,9 15 8 - - NE 1007,5 -
15.12.2019 17:00:00 12,4 11,1 9 5 - - N 1007,7 -
15.12.2019 16:00:00 12,7 11,3 15 8 - - NNW 1007,9 15
15.12.2019 15:00:00 14,8 11,4 8 4 - - WNW 1008,4 -
15.12.2019 14:00:00 15,4 12,7 15 8 - - N 1008,2 -
15.12.2019 13:00:00 16,7 12,4 8 4 - - NNW 1007,8 25
15.12.2019 12:00:00 15,0 12,8 9 5 - - NE 1008,5 -
15.12.2019 11:00:00 14,5 12,0 2 1 - - ENE 1009,3 -
15.12.2019 10:00:00 12,8 12,2 2 1 - - WSW 1009,4 15
15.12.2019 09:00:00 11,1 10,3 0 0 - - N 1008,8 -
15.12.2019 08:00:00 11,7 10,6 0 0 - - N 1008,8 -
15.12.2019 07:00:00 12,3 10,5 0 0 - - N 1009,1 12
15.12.2019 06:00:00 13,0 11,4 13 7 - - W 1009,6 -
15.12.2019 05:00:00 15,4 8,2 21 11 - - SSW 1007,9 -
15.12.2019 04:00:00 15,7 7,5 18 10 - - S 1008,2 -
15.12.2019 03:00:00 15,8 7,6 22 12 - - S 1008,1 -
15.12.2019 02:00:00 15,9 8,1 24 13 - - S 1008,1 -
15.12.2019 01:00:00 16,1 8,3 29 16 - - S 1008,5 -
15.12.2019 00:00:00 16,1 7,8 21 11 - - S 1008,7 -
14.12.2019 23:00:00 16,4 7,9 34 18 - - S 1008,6 -
14.12.2019 22:00:00 16,6 8,2 26 14 - - S 1009,0 25
14.12.2019 21:00:00 16,5 8,3 26 14 - - S 1009,4 -
14.12.2019 20:00:00 16,1 8,3 21 11 - - S 1009,9 -
14.12.2019 19:00:00 16,1 8,3 18 10 - - S 1009,9 30
14.12.2019 18:00:00 16,5 8,5 24 13 - - S 1009,8 -
14.12.2019 17:00:00 16,7 8,2 28 15 - - S 1010,2 -
14.12.2019 16:00:00 17,3 8,2 26 14 - - S 1010,4 -
14.12.2019 15:00:00 18,6 8,6 18 10 - - S 1011,1 -
14.12.2019 14:00:00 17,2 8,3 22 12 - - SSW 1011,7 -
14.12.2019 13:00:00 17,4 8,2 22 12 - - S 1012,4 30
14.12.2019 12:00:00 16,6 8,5 21 11 - - S 1013,5 -
14.12.2019 11:00:00 15,8 8,0 18 10 - - S 1013,6 -
14.12.2019 10:00:00 14,4 7,2 16 9 - - SSW 1013,5 30
14.12.2019 09:00:00 13,5 6,7 15 8 - - SW 1013,2 -
14.12.2019 08:00:00 13,8 6,9 16 9 - - SSW 1013,1 -
14.12.2019 07:00:00 13,2 7,4 15 8 - - SW 1013,0 20
14.12.2019 06:00:00 12,9 7,5 13 7 - - SSW 1012,9 -
14.12.2019 05:00:00 12,6 8,2 11 6 - - SSW 1012,8 -
14.12.2019 04:00:00 12,9 9,0 15 8 - - SSW 1012,7 -
14.12.2019 03:00:00 13,6 10,0 8 4 - - SW 1012,7 -
14.12.2019 02:00:00 13,3 10,5 11 6 - - SSW 1012,6 -
14.12.2019 01:00:00 12,9 10,8 13 7 - - SSW 1012,5 -
14.12.2019 00:00:00 13,7 11,4 16 9 - - SW 1012,9 -
13.12.2019 23:00:00 14,3 11,4 21 11 - - W 1012,9 -
13.12.2019 22:00:00 14,7 10,7 28 15 - - W 1012,8 10
13.12.2019 21:00:00 15,4 11,2 31 17 - - W 1012,7 -
13.12.2019 20:00:00 15,3 12,2 28 15 - - W 1012,6 -
13.12.2019 19:00:00 15,6 11,6 34 18 - - W 1012,0 12
13.12.2019 18:00:00 15,3 12,2 34 18 - - W 1011,9 -
13.12.2019 17:00:00 15,7 12,8 34 18 - - W 1011,3 -
13.12.2019 16:00:00 16,6 13,1 41 22 - - W 1010,6 10
13.12.2019 15:00:00 16,7 13,0 42 23 - - W 1010,2 -
13.12.2019 14:00:00 17,2 13,3 35 19 - - W 1010,0 -
13.12.2019 13:00:00 17,5 12,8 37 20 - - W 1010,7 30
13.12.2019 12:00:00 16,8 12,8 44 24 87 47 WNW 1011,1 -
13.12.2019 11:00:00 16,6 12,7 50 27 89 48 W 1010,5 -
13.12.2019 10:00:00 16,4 12,6 48 26 - - W 1009,7 25
13.12.2019 09:00:00 15,6 12,9 50 27 81 44 W 1009,0 -
13.12.2019 08:00:00 15,3 13,0 48 26 80 43 W 1008,6 -
13.12.2019 07:00:00 15,0 13,1 48 26 - - W 1007,0 12
13.12.2019 06:00:00 16,3 12,5 44 24 94 51 W 1005,6 -
13.12.2019 05:00:00 15,8 13,1 52 28 80 43 WNW 1005,9 -
13.12.2019 04:00:00 15,7 13,4 41 22 - - WNW 1005,7 -
13.12.2019 03:00:00 15,1 13,6 31 17 - - W 1005,2 -
13.12.2019 02:00:00 14,6 13,7 37 20 - - W 1005,7 -
13.12.2019 01:00:00 14,9 13,6 42 23 - - W 1006,1 -
13.12.2019 00:00:00 14,4 13,8 34 18 - - W 1006,2 -
12.12.2019 23:00:00 14,6 13,8 42 23 - - W 1006,1 -
12.12.2019 22:00:00 14,3 13,7 35 19 - - W 1005,8 6
12.12.2019 21:00:00 14,5 13,5 37 20 - - W 1005,9 -
12.12.2019 20:00:00 14,5 13,7 42 23 80 43 W 1006,4 -
12.12.2019 19:00:00 14,1 13,5 42 23 - - W 1006,5 3,0
12.12.2019 18:00:00 14,1 13,1 37 20 - - W 1006,0 -
12.12.2019 17:00:00 13,7 12,3 34 18 - - W 1005,7 -
12.12.2019 16:00:00 11,8 10,4 22 12 - - SW 1005,5 12
12.12.2019 15:00:00 10,8 9,6 22 12 - - SW 1005,7 -
12.12.2019 14:00:00 10,7 8,8 22 12 - - SSW 1006,9 -
12.12.2019 13:00:00 10,6 8,5 22 12 - - S 1008,1 8
12.12.2019 12:00:00 10,6 8,2 18 10 - - S 1010,3 -
12.12.2019 11:00:00 10,0 8,1 13 7 - - S 1012,2 -
12.12.2019 10:00:00 9,8 7,9 18 10 - - S 1014,0 15
12.12.2019 09:00:00 10,2 7,4 16 9 - - SSW 1014,7 -
12.12.2019 08:00:00 10,3 7,0 16 9 - - SW 1014,8 -
12.12.2019 07:00:00 9,8 7,6 15 8 - - SSW 1015,4 20
12.12.2019 06:00:00 9,7 7,6 18 10 - - SSW 1016,8 -
12.12.2019 05:00:00 9,7 8,1 18 10 - - SSW 1017,8 -
12.12.2019 04:00:00 10,0 9,1 11 6 - - SSW 1018,9 -
12.12.2019 03:00:00 10,8 8,9 13 7 - - SW 1019,4 -
12.12.2019 02:00:00 11,6 8,2 26 14 - - W 1020,2 -
12.12.2019 01:00:00 11,1 8,8 22 12 - - W 1020,8 -
12.12.2019 00:00:00 11,6 8,1 29 16 - - W 1021,3 -
11.12.2019 23:00:00 10,8 9,2 22 12 - - W 1021,8 -
11.12.2019 22:00:00 10,9 8,5 29 16 - - W 1022,3 15
11.12.2019 21:00:00 11,1 7,8 24 13 - - W 1022,1 -
11.12.2019 20:00:00 10,9 8,5 24 13 - - W 1022,7 -
11.12.2019 19:00:00 11,2 8,6 34 18 - - W 1022,6 15
11.12.2019 18:00:00 13,4 5,0 41 22 - - W 1021,5 -
11.12.2019 17:00:00 13,6 5,0 31 17 - - W 1021,3 -
11.12.2019 16:00:00 13,9 4,7 24 13 - - W 1021,4 30
11.12.2019 15:00:00 13,7 3,5 28 15 - - W 1021,8 -
11.12.2019 14:00:00 13,2 4,8 31 17 - - W 1022,9 -
11.12.2019 13:00:00 12,5 6,1 26 14 - - W 1023,5 20
11.12.2019 12:00:00 12,0 7,3 28 15 - - W 1024,0 -
11.12.2019 11:00:00 10,6 7,7 22 12 - - WSW 1024,0 -
11.12.2019 10:00:00 10,0 8,3 28 15 - - W 1023,7 10
11.12.2019 09:00:00 10,0 7,9 18 10 - - W 1023,4 -
11.12.2019 08:00:00 9,8 8,9 28 15 - - WNW 1023,0 -
11.12.2019 07:00:00 10,9 10,3 16 9 - - W 1021,8 6
11.12.2019 06:00:00 11,2 10,3 31 17 - - NW 1020,6 -
11.12.2019 05:00:00 13,6 11,4 15 8 - - W 1019,9 -
11.12.2019 04:00:00 12,9 5,2 11 6 - - W 1018,8 -
11.12.2019 03:00:00 12,8 4,8 16 9 - - S 1017,9 -
11.12.2019 02:00:00 13,2 5,1 13 7 - - SW 1018,8 -
11.12.2019 01:00:00 13,3 5,4 16 9 - - SSW 1019,4 -
11.12.2019 00:00:00 12,6 6,3 18 10 - - SSW 1020,2 -
10.12.2019 23:00:00 9,4 7,8 0 0 - - N 1020,8 -
10.12.2019 22:00:00 8,7 7,6 0 0 - - N 1021,1 25
10.12.2019 21:00:00 10,9 9,4 0 0 - - N 1021,5 -
10.12.2019 20:00:00 12,1 10,2 0 0 - - N 1022,2 -
10.12.2019 19:00:00 12,3 10,5 0 0 - - N 1022,5 20
10.12.2019 18:00:00 12,5 10,1 0 0 - - N 1022,4 -
10.12.2019 17:00:00 14,1 9,9 8 4 - - E 1022,7 -
10.12.2019 16:00:00 15,9 10,0 0 0 - - N 1023,0 30
10.12.2019 15:00:00 15,3 9,4 4 2 - - E 1023,7 -
10.12.2019 14:00:00 14,5 9,3 8 4 - - E 1024,8 -
10.12.2019 13:00:00 14,3 8,3 0 0 - - N 1026,0 25

tt = temperature
td = dewpoint
ff = wind speed
fx = gusts
dd = wind direction
ppp = reduced air pressure
vv = visibility

Next stations